Location: *
(49.6619°S, 177.4603°W)
Time: 06:10:25
(UTC+00:00)

Meteor 2-2 Rocket - Pass Details

Date: 31 January 2023
Orbit: 853 x 927 km, 81.3° (Epoch: 01 April)

Event Time Altitude Azimuth Distance (km) Brightness Sun altitude
Exits shadow 09:35:03 15° 359° (N) 2,247 5.9 -15.4°
Maximum altitude 09:40:02 74° 82° (E) 967 4.3 -15.8°
Drops below altitude 10° 09:46:06 10° 165° (SSE) 2,660 7.4 -16.4°
Sets 09:48:38 0° 166° (SSE) 3,615 8.1 -16.6°
